Weather History for El Paso, TX

Change the Weather History Date:

Saturday, July 13, 2013

  Actual Average Record
Temperature  
Mean Temperature 88 °F 83 °F  
Max Temperature 99 °F 95 °F 108 °F (1979)
Min Temperature 76 °F 71 °F 57 °F (1897)
Degree Days  
Heating Degree Days 0 0  
Month to date heating degree days 0 0  
Since 1 June heating degree days 0 0  
Since 1 July heating degree days 0 0  
Cooling Degree Days 23 18  
Month to date cooling degree days 268 237  
Year to date cooling degree days 1439 1116  
Since 1 June cooling degree days 931 739  
Growing Degree Days 37 (Base 50)    
Moisture  
Dew Point 51 °F    
Average Humidity 33    
Maximum Humidity 47    
Minimum Humidity 18    
Precipitation  
Precipitation T in 0.05 in 0.96 in (1919)
Month to date precipitation 0.08 0.56  
Year to date precipitation 1.13 3.32  
Snow  
Snow 0.00 in - - ()
Month to date snowfall 0.0  
Since 1 June snowfall 0.0  
Since 1 July snowfall 0.0  
Snow Depth 0.00 in    
Sea Level Pressure  
Sea Level Pressure 29.76 in    
Wind  
Wind Speed 6 mph (East)    
Max Wind Speed 18 mph    
Max Gust Speed 23 mph    
Visibility 10 miles    
Events Rain    
T = Trace of Precipitation, MM = Missing Value Source: NWS Daily Summary

Daily Weather History Graph

Daily Weather History Graph

Search for Another Location

Airport:

Trip Planner

Search our weather history database for the weather conditions in past years. The results will help you decide how hot, cold, wet, or windy it might be!

Date:

Astronomy

Jul. 13, 2013 Rise Set
Actual Time 6:09 AM MDT 8:12 PM MDT
Civil Twilight 5:41 AM MDT 8:40 PM MDT
Nautical Twilight 5:08 AM MDT 9:13 PM MDT
Astronomical Twilight 4:32 AM MDT 9:49 PM MDT
Moon 11:06 AM MDT (7/13) 11:19 PM MDT (7/13)
Length of Visible Light 14h 58m
Length of Day
14h 03m
Waxing Crescent, 26% of the Moon is Illuminated
Jul 13
Waxing Crescent
Jul 15
First Quarter
Jul 22
Full
Jul 29
Last Quarter
Aug 6
New

Hourly Weather History & Observations

Time (MDT) Temp. Heat Index Dew Point Humidity Pressure Visibility Wind Dir Wind Speed Gust Speed Precip Events Conditions
12:51 AM 84.0 °F 82.6 °F 54.0 °F 35% 29.77 in 10.0 mi WNW 8.1 mph - N/A   Mostly Cloudy
1:51 AM 82.0 °F 81.3 °F 54.0 °F 38% 29.77 in 10.0 mi ENE 3.5 mph - N/A   Scattered Clouds
2:51 AM 81.0 °F 80.5 °F 54.0 °F 39% 29.77 in 10.0 mi NE 4.6 mph - N/A   Scattered Clouds
3:51 AM 78.1 °F - 54.0 °F 43% 29.77 in 10.0 mi ENE 6.9 mph - N/A   Scattered Clouds
4:51 AM 78.1 °F - 55.0 °F 45% 29.78 in 10.0 mi ENE 6.9 mph - N/A   Scattered Clouds
5:51 AM 77.0 °F - 55.0 °F 47% 29.80 in 10.0 mi NE 4.6 mph - N/A   Partly Cloudy
6:51 AM 75.9 °F - 53.1 °F 45% 29.82 in 10.0 mi Calm Calm - N/A   Partly Cloudy
7:51 AM 79.0 °F - 54.0 °F 42% 29.83 in 10.0 mi ENE 6.9 mph - N/A   Partly Cloudy
8:51 AM 81.0 °F 80.7 °F 55.0 °F 41% 29.85 in 10.0 mi ENE 4.6 mph - N/A   Partly Cloudy
9:51 AM 82.9 °F 82.6 °F 57.9 °F 42% 29.84 in 10.0 mi ENE 3.5 mph - N/A   Partly Cloudy
10:51 AM 86.0 °F 84.7 °F 55.9 °F 36% 29.83 in 10.0 mi Calm Calm - N/A   Clear
11:51 AM 90.0 °F 87.9 °F 55.0 °F 30% 29.81 in 10.0 mi Variable 3.5 mph - N/A   Clear
12:51 PM 91.9 °F 89.5 °F 54.0 °F 27% 29.79 in 10.0 mi Variable 5.8 mph - N/A   Partly Cloudy
1:51 PM 93.9 °F - 52.0 °F 24% 29.77 in 10.0 mi Variable 3.5 mph - N/A   Partly Cloudy
2:51 PM 98.1 °F - 51.1 °F 20% 29.73 in 10.0 mi SSW 6.9 mph - N/A   Partly Cloudy
3:51 PM 98.1 °F - 52.0 °F 21% 29.72 in 10.0 mi Variable 4.6 mph - N/A   Partly Cloudy
4:51 PM 97.0 °F - 50.0 °F 20% 29.70 in 10.0 mi SSE 5.8 mph - 0.00 in Rain Light Rain
5:51 PM 97.0 °F - 48.9 °F 19% 29.68 in 10.0 mi Variable 3.5 mph - 0.00 in   Scattered Clouds
6:51 PM 97.0 °F - 48.0 °F 19% 29.68 in 10.0 mi SSE 5.8 mph - N/A   Scattered Clouds
7:51 PM 95.0 °F - 46.9 °F 19% 29.69 in 10.0 mi ESE 11.5 mph - N/A   Scattered Clouds
8:51 PM 93.0 °F - 46.0 °F 20% 29.71 in 10.0 mi East 13.8 mph - N/A   Partly Cloudy
9:51 PM 91.0 °F - 43.0 °F 19% 29.73 in 10.0 mi East 12.7 mph - N/A   Partly Cloudy
10:51 PM 90.0 °F - 43.0 °F 19% 29.74 in 10.0 mi ESE 12.7 mph - N/A   Partly Cloudy
11:51 PM 87.1 °F - 45.0 °F 23% 29.75 in 10.0 mi ESE 12.7 mph - N/A   Partly Cloudy